Weather in Priladozhsky

Russia / Saint-Petersburg and Leningrad Oblast     59°52′31″N   31°19′30″E
temp.,
°C
wind,
m/s
gust,
m/s
humid.,
%
clouds,
%
prec.,
mm/h
press.,
hPa
HPBL,
m
13 may, thu
thu1300:00+13sse22760 0.0 101913
03:00+12se47790 0.0 101892
06:00+11se35817 0.0 101665
09:00+14se467523 0.1 1016266
12:00+16se466899 0.1 1015561
15:00+16se35595 0.1 1014625
18:00+16ese34525 0.0 1012762
21:00+13ese226711 0.0 101211
14 may, fri
fri1400:00+11s227141 0.0 101014
03:00+10ssw3591100 0.4 101187
06:00+10sse359553 1.6 1010100
09:00+11s56820 1.9 1011309
12:00+14sse565940 0.0 1011671
15:00+13sse5764100 0.0 1012534
18:00+14sse576774 0.0 1011511
21:00+13se4576100 0.0 101066
15 may, sat
sat1500:00+12se3581100 0.0 101081
03:00+11se358440 0.0 100953
06:00+10se3590100 0.0 100876
09:00+12ese2382100 0.0 1007154
12:00+11ese4591100 0.3 1006180
15:00+12e239192 0.4 1005206
18:00+11nne439188 0.1 1004112
21:00+9nne239996 0.1 100338
16 may, sun
sun1600:00+9w2210086 0.3 100539
03:00+9w598799 0.3 1006164
06:00+9wsw588699 0.0 1008159
09:00+11wsw46755 0.0 1010270
12:00+13w456568 0.0 1011481
15:00+14nw345876 0.0 1012652
18:00+14n1264100 0.0 1012175
21:00+11ese33739 0.0 101315
17 may, mon
mon1700:00+10se458223 0.0 101349
03:00+9se3586100 0.0 101353
06:00+10se358554 0.0 101385
09:00+13se46695 0.0 1012195
12:00+17se576219 0.0 1011627
15:00+17se5760100 0.0 1010282
18:00+17ese5765100 0.0 1008542
21:00+15se5876100 0.1 1007137